Weather in Belqas

Egypt     31°12′58″N   31°21′34″E
temp.,
°C
wind,
m/s
gust,
m/s
humid.,
%
clouds,
%
prec.,
mm/h
press.,
hPa
HPBL,
m
9 march, tue
tue923:00+10ese22890 0.0 101722
02:00+10ese23910 0.0 101635
05:00+11ese348792 0.0 101566
08:00+16ese585880 0.0 1016292
11:00+26e552320 0.0 1015965
14:00+29ese45189 0.0 10131427
17:00+25ese7112660 0.0 1012586
20:00+17ese454536 0.0 101293
10 march, wed
wed1023:00+15ne345110 0.0 101243
02:00+15ese466215 0.0 101083
05:00+15se333756 0.0 100932
08:00+23s6121635 0.0 1010331
11:00+34sw91380 0.0 10091620
14:00+36wsw101560 0.0 10083114
17:00+23wnw813340 0.0 1008500
20:00+16wnw4117716 0.0 1011251
11 march, thu
thu1123:00+14w379167 0.0 1012155
02:00+13wsw369678 0.0 1012130
05:00+14w2395100 0.0 101289
08:00+17w247598 0.0 1013354
11:00+23wnw5644100 0.0 1014881
14:00+24nw683895 0.0 1012812
17:00+19nw6967100 0.0 1012640
20:00+15wnw41087100 0.0 1014313
12 march, fri
fri1223:00+14w4118292 0.0 1015465
02:00+14wnw5138079 0.0 1014814
05:00+14wnw512700 0.0 1015772
08:00+16nw710530 0.0 10171242
11:00+19nw89420 0.0 10181379
14:00+19nw78410 0.0 10161300
17:00+16nnw57530 0.0 1017962
20:00+10nw23840 0.0 101930
13 march, sat
sat1323:00+9n11840 0.0 102022
02:00+8n11840 0.0 101922
05:00+8w11850 0.0 101922
08:00+14e12580 0.0 1020208
11:00+21ene33310 0.0 10191122
14:00+23ne65310 0.0 10171063
17:00+17ne67460 0.0 1017652
20:00+11ne34750 0.0 101870